Location: ??????
(38.1303°N, 24.0039°E)
Time: 10:00:17
(UTC+00:00)

CZ-2C R/B - Pass Details

Date: 20 June 2021
Orbit: 667 x 785 km, 98.2° (Epoch: 30 July)

Event Time Altitude Azimuth Distance (km) Brightness Sun altitude
Rises 02:09:31 0° 12° (NNE) 3,193 6.6 -9.1°
Reaches altitude 10° 02:11:50 10° 12° (NNE) 2,248 5.8 -8.7°
Maximum altitude 02:16:47 88° 284° (WNW) 723 2.4 -8.0°
Drops below altitude 10° 02:21:31 10° 195° (SSW) 2,157 4.4 -7.3°
Enters shadow 02:23:19 - 195° (SSW) 2,888 5.0 -7.0°
